{"data":{"norad_id":62664,"epoch":"2026-09-22T17:19:03.057024Z","epoch_age_seconds":127585,"freshness":"FRESH","line1":"1 62664U 25009BH  26265.72156316  .00005805  00000+0  26994-3 0  9992","line2":"2 62664  97.3903 338.3198 0008115 203.0187 157.0686 15.20318838 93237","mean_motion":15.20318838,"eccentricity":0.0008115,"inclination_deg":97.3903,"raan_deg":338.3198,"arg_perigee_deg":203.0187,"mean_anomaly_deg":157.0686,"bstar":0.00026994,"rev_number":9323,"period_min":94.716974098298,"perigee_km":499.29255133391,"apogee_km":510.46368487059,"semimajor_km":6883.0151181022,"source":"CELESTRAK","updated_at":"2026-09-23T09:00:21.543527Z"}}